Home   Weather   Demmin   Past weeks

Flag for Germany Past Weather in Demmin, Mecklenburg-Western Pomerania, Germany — Yesterday and Last 2 Weeks

Now
32 °F

Low clouds.


Feels Like: 26 °F
Forecast: 32 / 36 °F
Wind: 6 mph from West

Location: Laage

Current Time: Jan 23, 2017 at 2:05:22 pm

Latest Report: Jan 23, 2017 at 1:20 pm


Visibility: 4 mi

Pressure: 30.24 "Hg

Humidity: 93%

Dew Point: 30 °F

Location of DemminLocation

Past Weather in Demmin — Graph

°F

Demmin Temperature Yesterday

Maximum temperature yesterday: 36 °F (at 12:20 am)
Minimum temperature yesterday: 28 °F (at 7:20 pm)
Average temperature yesterday: 33 °F

High & Low Weather Summary for the Past Weeks

 TemperatureHumidityPressure
High37 °F (Jan 11, 8:20 pm)100% (Jan 11, 1:43 pm)30.72 "Hg (Jan 11, 1:43 pm)
Low19 °F (Jan 16, 3:20 am)70% (Jan 16, 2:20 pm)29.06 "Hg (Jan 13, 7:08 am)
Average32 °F90%30.08 "Hg
* Reported Jan 8 12:20 pm — Jan 23 12:26 pm, Demmin, Weather by CustomWeather, © 2017

Note: Actual official high and low records may vary slightly from our data, if they occured in-between our weather recording intervals... More about our weather records

Advertising

Demmin Weather History for the Previous 24 Hours

Scroll right to see more
 ConditionsComfort  
Time TempWeatherWind HumidityBarometerVisibility
12:26 pm
Mon, Jan 23
32 °FIce fog.8 mph93%30.24 "Hg3 mi
11:20 am30 °FIce fog.7 mph100%30.24 "Hg2 mi
10:20 am30 °FLight freezing rain. Ice fog.2 mph93%30.24 "Hg1 mi
9:53 am30 °FLight freezing rain. Ice fog.2 mph93%30.24 "Hg1 mi
9:20 am30 °FIce fog.2 mph93%30.24 "Hg1 mi
8:20 am28 °FLight freezing rain. Ice fog.2 mph100%30.24 "Hg1 mi
7:20 am28 °FIce fog.6 mph93%30.24 "Hg1 mi
6:33 am28 °FIce fog.2 mph100%30.24 "Hg1 mi
6:20 am28 °FLight freezing rain. Ice fog.5 mph100%30.24 "Hg1 mi
6:07 am28 °FLight freezing rain. Ice fog.5 mph100%30.24 "Hg1 mi
5:20 am28 °FIce fog.3 mph93%30.24 "Hg1 mi
5:02 am28 °FIce fog.2 mph93%30.24 "Hg1 mi
4:38 am28 °FIce fog.1 mph93%30.24 "Hg1 mi
4:20 am28 °FIce fog.1 mph93%30.24 "Hg0 mi
3:20 am28 °FIce fog.No wind93%30.27 "Hg0 mi
2:20 am28 °FIce fog.3 mph93%30.27 "Hg0 mi
1:20 am28 °FIce fog.3 mph93%30.27 "Hg0 mi
12:20 am28 °FIce fog.2 mph100%30.30 "Hg0 mi
11:20 pm
Sun, Jan 22
28 °FIce fog.3 mph100%30.30 "Hg0 mi
10:20 pm28 °FIce fog.5 mph100%30.30 "Hg0 mi
9:20 pm28 °FIce fog.5 mph100%30.30 "Hg0 mi
8:26 pm28 °FIce fog.6 mph100%30.30 "Hg0 mi
8:00 pm28 °FIce fog.6 mph93%30.30 "Hg1 mi
7:20 pm28 °FChilly.5 mph93%30.30 "Hg4 mi
6:20 pm30 °FChilly.6 mph93%30.33 "HgN/A
5:20 pm32 °FChilly.6 mph87%30.33 "Hg6 mi
4:20 pm34 °FPassing clouds.7 mph87%30.33 "HgN/A
3:20 pm36 °FPassing clouds.5 mph81%30.33 "HgN/A
2:20 pm34 °FScattered clouds.3 mph87%30.33 "HgN/A
Weather by CustomWeather, © 2017

See weather overviewHow to use our weather pages